[[{"header":{"parameterUnit":"m.s-1","parameterCategory":1,"la1":30.2991,"la2":30.254,"lo1":-89.0895,"lo2":-89.0444,"dy":0.0017,"dx":0.0017,"nx":28,"ny":28,"refTime":"2024-09-01T03:00:00:Z","depth":0,"parameterNumber":2,"parameterNumberName":"U-component_of_WINDS"},"data":[0,0,0,0,0,0,0,0,0,0,0,0,0,0,0,0,0,0,0,0,0,0,0,0,0,0,0,0,0,0,0,0,0,0,0,0,0,0,0,0,0,0,0,0,0,0,0,0,0,0,0,0,0,0,0,0,0,0,0.6061,0.6061,0,0.6008,0.6008,0.6007,0.5984,0.5985,0.5985,0.5985,0.5927,0.5926,0.5924,0,0,0,0,0,0,0,0,0,0,0,0,0,0.6142,0.614,0.6062,0.6061,0.606,0.6008,0.6008,0.6007,0.5984,0.5985,0.5985,0.5985,0.5928,0.5926,0.5924,0,0,0,0,0,0,0,0,0,0,0,0,0,0.6099,0.614,0.6062,0.6043,0.6041,0.6008,0.6008,0.6007,0.5984,0.5985,0.5985,0.5985,0.5929,0.5926,0.5924,0.5905,0,0,0.5916,0.5915,0,0,0,0,0,0,0,0,0.6102,0.6096,0.6046,0.6044,0.6042,0.6003,0.6015,0.5973,0.5984,0.6006,0.5985,0.5985,0.5952,0.5948,0.5937,0.5903,0.59,0.5916,0.5915,0.5913,0.5913,0,0,0,0,0,0,0,0.6105,0.6099,0.604,0.6046,0.6043,0.6036,0.6031,0.6007,0.5979,0.6004,0.6002,0.5996,0.5951,0.594,0.5936,0.5899,0.5916,0.5914,0.5912,0.5911,0.5847,0.5847,0,0,0,0,0,0,0.6111,0.6101,0.6042,0.6039,0.6073,0.6035,0.6028,0.6015,0.5979,0.5973,0.5996,0.5995,0.5944,0.5939,0.5934,0.591,0.5914,0.5911,0.591,0.5847,0.5847,0.5847,0,0,0,0,0,0,0.6113,0.6106,0.6044,0.6069,0.6061,0.6033,0.6019,0.6014,0.6003,0.5973,0.5968,0.599,0.5944,0.5937,0.5913,0.5908,0.591,0.5908,0.5848,0.5847,0.5847,0.5862,0,0,0,0,0,0,0.6115,0.6107,0.61,0.607,0.606,0.6025,0.6019,0.6013,0.5999,0.5998,0.5966,0.5961,0.5943,0.5917,0.591,0.5904,0.5906,0.5848,0.5847,0.5847,0.5862,0.5862,0.5863,0,0,0,0,0,0.6118,0.6106,0.61,0.6093,0.6051,0.6025,0.6019,0.6,0.5999,0.5991,0.5972,0.5962,0.591,0.5914,0.5907,0.59,0.5848,0.5848,0.5847,0.5862,0.5862,0.5863,0,0,0,0,0,0,0.6135,0.6101,0.6094,0.6072,0.6051,0.6021,0.6011,0.6001,0.598,0.5979,0.5956,0.5949,0.5926,0.5911,0.5917,0.5881,0.5878,0.5876,0.5892,0.5892,0.5892,0.5896,0.5904,0,0,0,0,0,0.6136,0.6119,0.609,0.6072,0.6063,0.6039,0.6026,0.6014,0.5991,0.5982,0.5961,0.5939,0.5918,0.5904,0.5883,0.586,0.5853,0.5852,0.5852,0.5853,0.5851,0.5838,0.5837,0.5845,0.5845,0.5845,0,0,0.6138,0.6118,0.6108,0.6075,0.6058,0.6039,0.6031,0.6012,0.5998,0.5979,0.5955,0.5939,0.5913,0.5889,0.5878,0.5876,0.5847,0.5852,0.5852,0.585,0.5837,0.5836,0.5836,0.5845,0.5845,0.5845,0,0,0.6132,0.6115,0.6099,0.6082,0.6057,0.6041,0.6037,0.6008,0.5997,0.5973,0.5959,0.5941,0.5905,0.5887,0.5873,0.5862,0.5851,0.5855,0.5857,0.5845,0.5844,0.5843,0.5839,0.5838,0.5854,0.5854,0.5854,0,0.6137,0.611,0.6092,0.6073,0.6059,0.6043,0.6026,0.6011,0.5979,0.5969,0.5968,0.5922,0.5903,0.5876,0.5873,0.5862,0.5857,0.5858,0.5846,0.5845,0.5844,0.5839,0.5838,0.5855,0.5855,0.5854,0.5854,0,0.6117,0.6099,0.6088,0.606,0.6045,0.6027,0.6006,0.5993,0.5982,0.5967,0.5942,0.5919,0.5893,0.5886,0.5874,0.5856,0.5856,0.585,0.5847,0.5844,0.584,0.5838,0.5856,0.5855,0.5855,0.5855,0,0,0.6119,0.6082,0.6078,0.6065,0.6036,0.6021,0.6003,0.5979,0.5968,0.5947,0.5931,0.5901,0.5896,0.588,0.5867,0.5856,0.5848,0.5852,0.5851,0.5851,0.5827,0.5831,0.583,0.5842,0.5841,0.5841,0.5829,0,0.6109,0.6077,0.606,0.6035,0.6017,0.6002,0.5986,0.5966,0.5951,0.5934,0.5917,0.5896,0.5891,0.5882,0.587,0.5852,0.5843,0.5852,0.5826,0.5825,0.5832,0.5827,0.5831,0.5821,0.5827,0.5827,0.5827,0,0.6092,0.6073,0.6046,0.602,0.6012,0.5998,0.5974,0.5958,0.5935,0.5925,0.5909,0.5896,0.5876,0.5875,0.5846,0.5853,0.5841,0.5831,0.583,0.5826,0.5825,0.5823,0.5817,0.5816,0.5824,0.5824,0.5824,0,0.6096,0.6063,0.6042,0.6032,0.6001,0.5992,0.5978,0.5956,0.5943,0.5922,0.5913,0.589,0.5878,0.586,0.5841,0.5842,0.5815,0.5812,0.5805,0.5806,0.5799,0.58,0.5791,0.5793,0.5793,0.5793,0.5793,0,0.6085,0.6069,0.6044,0.6031,0.6013,0.5994,0.5976,0.5962,0.5942,0.5926,0.5911,0.5896,0.5873,0.5855,0.584,0.5819,0.5813,0.5804,0.58,0.5805,0.5806,0.5796,0.5796,0.5792,0.5793,0.5793,0.5793,0,0.6086,0.6068,0.6045,0.6018,0.6011,0.5999,0.5976,0.5963,0.5948,0.5928,0.5922,0.5898,0.5876,0.5856,0.5827,0.5817,0.5795,0.5791,0.5803,0.5801,0.5795,0.5796,0.578,0.5777,0.5781,0.5781,0.5781,0,0.608,0.6067,0.604,0.6029,0.6016,0.5998,0.5985,0.5966,0.5953,0.5927,0.5917,0.5895,0.5875,0.5841,0.5821,0.5798,0.5793,0.5789,0.5789,0.5795,0.5792,0.5793,0.5791,0.5789,0.5789,0.5789,0.5789,0,0.6071,0.6064,0.6046,0.6025,0.601,0.5992,0.5974,0.5965,0.5943,0.5929,0.5907,0.5893,0.5864,0.5841,0.5817,0.5802,0.5792,0.5789,0.5786,0.5791,0.5798,0.5794,0.5803,0.5789,0.5789,0.5789,0.5789,0.5789,0.6068,0.6056,0.6036,0.6016,0.6001,0.5985,0.5971,0.5956,0.5937,0.5913,0.5903,0.5881,0.5859,0.5826,0.5811,0.5793,0.5791,0.5787,0.5786,0.5785,0.5786,0.5802,0.5789,0.5789,0.5789,0.5789,0.5789,0,0.6058,0.6045,0.6027,0.6003,0.5988,0.5981,0.5961,0.5948,0.5929,0.591,0.5892,0.5868,0.5846,0.5825,0.5802,0.5792,0.5787,0.5787,0.5787,0.5783,0.5789,0.5794,0.5791,0.5791,0.5791,0.5791,0.5791,0.5791,0.6051,0.6031,0.6021,0.5994,0.598,0.5959,0.5948,0.5933,0.5918,0.5891,0.5874,0.5861,0.5841,0.5817,0.5797,0.5791,0.5783,0.5785,0.5777,0.5783,0.5783,0.5783,0.5787,0.5783,0.5783,0.5773,0.5773,0.5773]},{"header":{"parameterUnit":"m.s-1","parameterCategory":1,"la1":30.2991,"la2":30.254,"lo1":-89.0895,"lo2":-89.0444,"dy":0.0017,"dx":0.0017,"nx":28,"ny":28,"refTime":"2024-09-01T03:00:00:Z","depth":0,"parameterNumber":3,"parameterNumberName":"V-component_of_WINDS"},"data":[0,0,0,0,0,0,0,0,0,0,0,0,0,0,0,0,0,0,0,0,0,0,0,0,0,0,0,0,0,0,0,0,0,0,0,0,0,0,0,0,0,0,0,0,0,0,0,0,0,0,0,0,0,0,0,0,0,0,-2.6417,-2.6418,0,-2.6548,-2.655,-2.6551,-2.6537,-2.6535,-2.6533,-2.6531,-2.6667,-2.6672,-2.6677,0,0,0,0,0,0,0,0,0,0,0,0,0,-2.6153,-2.6158,-2.6416,-2.6418,-2.642,-2.6548,-2.655,-2.6552,-2.6537,-2.6535,-2.6532,-2.653,-2.6665,-2.6671,-2.6678,0,0,0,0,0,0,0,0,0,0,0,0,0,-2.6275,-2.616,-2.6416,-2.6428,-2.643,-2.6548,-2.655,-2.6552,-2.6538,-2.6535,-2.6532,-2.6529,-2.6663,-2.6671,-2.6679,-2.6793,0,0,-2.6704,-2.6708,0,0,0,0,0,0,0,0,-2.6268,-2.6284,-2.6425,-2.6427,-2.643,-2.6523,-2.6507,-2.6633,-2.6539,-2.6497,-2.6531,-2.6527,-2.6621,-2.6633,-2.6665,-2.68,-2.6805,-2.6705,-2.671,-2.6714,-2.6716,0,0,0,0,0,0,0,-2.6259,-2.6278,-2.6469,-2.6427,-2.643,-2.6427,-2.6441,-2.6531,-2.6575,-2.6501,-2.65,-2.6516,-2.6622,-2.6657,-2.6668,-2.6807,-2.6705,-2.6712,-2.6717,-2.6721,-2.7044,-2.7048,0,0,0,0,0,0,-2.6248,-2.6272,-2.6464,-2.6473,-2.634,-2.6434,-2.645,-2.6496,-2.6574,-2.6583,-2.6518,-2.6514,-2.6644,-2.6658,-2.6672,-2.6813,-2.6714,-2.6721,-2.6726,-2.7041,-2.7045,-2.7049,0,0,0,0,0,0,-2.6242,-2.6265,-2.6459,-2.6372,-2.6396,-2.6442,-2.6495,-2.6501,-2.6535,-2.6588,-2.6595,-2.6545,-2.6642,-2.6661,-2.6764,-2.6817,-2.6725,-2.6733,-2.7036,-2.7042,-2.7047,-2.7093,0,0,0,0,0,0,-2.6235,-2.6263,-2.6307,-2.6373,-2.6401,-2.6548,-2.6498,-2.6506,-2.6549,-2.6546,-2.6615,-2.6623,-2.6641,-2.6751,-2.6772,-2.6827,-2.6739,-2.7032,-2.7039,-2.7045,-2.7087,-2.71,-2.711,0,0,0,0,0,-2.6225,-2.6314,-2.6309,-2.6333,-2.6457,-2.6551,-2.6567,-2.6586,-2.6554,-2.6598,-2.6632,-2.6621,-2.6808,-2.6762,-2.6785,-2.6843,-2.7029,-2.7037,-2.7045,-2.7082,-2.7097,-2.711,0,0,0,0,0,0,-2.6253,-2.6323,-2.6318,-2.6431,-2.6485,-2.6548,-2.6605,-2.6601,-2.6665,-2.6659,-2.6679,-2.6695,-2.6799,-2.6831,-2.6779,-2.6959,-2.6914,-2.6927,-2.6934,-2.6949,-2.696,-2.6951,-2.6746,0,0,0,0,0,-2.6273,-2.6343,-2.6401,-2.6495,-2.6522,-2.6559,-2.6601,-2.6611,-2.6667,-2.669,-2.6732,-2.6788,-2.6859,-2.6905,-2.6974,-2.7091,-2.7107,-2.7143,-2.7154,-2.7164,-2.7175,-2.7241,-2.7258,-2.7076,-2.7075,-2.7075,0,0,-2.6314,-2.636,-2.6404,-2.6502,-2.6545,-2.6618,-2.6579,-2.6657,-2.6712,-2.6702,-2.6803,-2.6835,-2.6899,-2.701,-2.7061,-2.704,-2.7229,-2.7174,-2.7181,-2.7187,-2.7251,-2.7268,-2.7284,-2.7081,-2.708,-2.7079,0,0,-2.6426,-2.6467,-2.6551,-2.6595,-2.6661,-2.6685,-2.6705,-2.6769,-2.6791,-2.6891,-2.6886,-2.6951,-2.7073,-2.7119,-2.7159,-2.7289,-2.7282,-2.7311,-2.7371,-2.7435,-2.7449,-2.7462,-2.751,-2.7527,-2.7321,-2.7322,-2.7322,0,-2.6468,-2.6578,-2.6595,-2.6675,-2.6719,-2.6713,-2.6799,-2.6841,-2.6926,-2.6956,-2.6931,-2.7085,-2.7128,-2.725,-2.7282,-2.7313,-2.7338,-2.7303,-2.7446,-2.7459,-2.7471,-2.7517,-2.7535,-2.7325,-2.7324,-2.7324,-2.7324,0,-2.6628,-2.6704,-2.6764,-2.6846,-2.6896,-2.6979,-2.7009,-2.7058,-2.7063,-2.709,-2.7193,-2.7244,-2.7323,-2.7353,-2.7358,-2.7477,-2.7462,-2.7441,-2.7397,-2.7492,-2.7535,-2.7553,-2.7329,-2.7328,-2.7327,-2.7327,0,0,-2.6762,-2.6852,-2.6874,-2.6912,-2.6984,-2.7044,-2.7126,-2.7204,-2.7246,-2.7305,-2.7375,-2.7479,-2.7461,-2.7505,-2.7516,-2.7572,-2.7674,-2.7545,-2.7547,-2.7568,-2.7809,-2.7825,-2.7845,-2.7669,-2.7672,-2.7675,-2.7804,0,-2.6882,-2.7028,-2.7046,-2.7176,-2.7247,-2.7243,-2.7315,-2.7367,-2.7395,-2.746,-2.749,-2.7564,-2.7533,-2.756,-2.7615,-2.765,-2.7723,-2.7641,-2.7736,-2.7739,-2.7721,-2.7868,-2.7885,-2.8004,-2.7821,-2.7824,-2.7826,0,-2.7042,-2.7105,-2.7242,-2.7306,-2.7336,-2.7401,-2.7474,-2.7536,-2.7595,-2.7611,-2.7662,-2.7666,-2.7752,-2.7703,-2.7822,-2.7766,-2.7806,-2.7829,-2.7834,-2.7844,-2.7789,-2.7884,-2.8042,-2.8061,-2.7853,-2.7851,-2.7849,0,-2.7128,-2.7247,-2.7345,-2.7377,-2.7453,-2.7499,-2.7533,-2.7589,-2.7635,-2.7699,-2.7729,-2.7802,-2.7842,-2.7899,-2.7922,-2.7884,-2.8041,-2.7994,-2.8058,-2.8057,-2.8092,-2.809,-2.8261,-2.8115,-2.8115,-2.8115,-2.8114,0,-2.7261,-2.7345,-2.7385,-2.7445,-2.754,-2.756,-2.7653,-2.7685,-2.7736,-2.7803,-2.7803,-2.7866,-2.7893,-2.796,-2.7979,-2.8076,-2.8094,-2.811,-2.8114,-2.8111,-2.8109,-2.8138,-2.8131,-2.8119,-2.8118,-2.8117,-2.8117,0,-2.7373,-2.7403,-2.7509,-2.7573,-2.759,-2.7658,-2.7712,-2.7771,-2.7797,-2.7882,-2.7903,-2.7945,-2.8025,-2.8054,-2.815,-2.8163,-2.8276,-2.8273,-2.8256,-2.8257,-2.832,-2.8315,-2.8518,-2.8546,-2.838,-2.8382,-2.8383,0,-2.7457,-2.7522,-2.7592,-2.7637,-2.7672,-2.7745,-2.7791,-2.7814,-2.7863,-2.7936,-2.7986,-2.8065,-2.813,-2.8257,-2.8296,-2.8371,-2.837,-2.8436,-2.8381,-2.8376,-2.8373,-2.8369,-2.8377,-2.8446,-2.8448,-2.845,-2.8451,0,-2.7603,-2.7615,-2.7682,-2.7755,-2.7811,-2.7869,-2.7926,-2.7963,-2.7994,-2.8049,-2.813,-2.818,-2.8279,-2.8358,-2.8434,-2.8469,-2.8466,-2.8467,-2.8486,-2.8484,-2.8473,-2.8482,-2.8285,-2.8463,-2.8462,-2.8461,-2.846,-2.846,-2.7705,-2.7763,-2.7822,-2.7897,-2.7942,-2.7995,-2.8054,-2.8088,-2.8156,-2.8238,-2.8247,-2.8335,-2.8394,-2.8496,-2.8535,-2.8604,-2.8586,-2.8613,-2.8621,-2.8627,-2.8633,-2.846,-2.8618,-2.8617,-2.8617,-2.8617,-2.8617,0,-2.7852,-2.789,-2.7959,-2.8038,-2.8098,-2.8089,-2.8151,-2.8202,-2.8279,-2.8334,-2.8398,-2.8492,-2.8569,-2.8614,-2.8691,-2.8738,-2.8739,-2.8758,-2.8755,-2.8764,-2.8643,-2.862,-2.8756,-2.8756,-2.8756,-2.8756,-2.8756,-2.8756,-2.7936,-2.8034,-2.8053,-2.8174,-2.8211,-2.8297,-2.8333,-2.8383,-2.8427,-2.8532,-2.8596,-2.8625,-2.8677,-2.8758,-2.8828,-2.8839,-2.8868,-2.889,-2.89,-2.8787,-2.8772,-2.8759,-2.8737,-2.8895,-2.8895,-2.9015,-2.9016,-2.9016]}]]